Regional Weather Roundup
Issued by NWS State College, PA

Home | Current Version | Previous Version | Text Only | Print | Product List | Glossary Off
Versions: 1 2 3 4 5 6 7 8 9 10 11 12 13 14 15 16 17 18 19 20 21 22 23 24 25 26 27 28 29 30 31 32 33 34 35 36 37 38 39 40 41 42 43 44 45 46 47 48 49 50

000
ASUS41 KCTP 251803
RWRCTP

REGIONAL WEATHER ROUNDUP
NATIONAL WEATHER SERVICE STATE COLLEGE PA
100 PM EST SAT FEB 25 2017

Note: "fair" indicates few or no clouds below 12,000 feet with no
significant weather and/or obstructions to visibility.

* = STATION THAT DOES NOT REPORT PRECIPITATION /E.G. RAIN...SNOW...ETC/
    THUNDER OR FOG.

PAZ002>004-007>009-013>016-020>023-029>032-251900-
WESTERN PENNSYLVANIA

CITY           SKY/WX    TMP DP  RH WIND       PRES   REMARKS
ERIE           CLOUDY    41  32  70 W21G35    29.59R
MEADVILLE      CLOUDY    46  29  51 SW16G32   29.56S
FRANKLIN*      CLOUDY    45  30  57 SW13G25   29.59R
NEW CASTLE     CLOUDY    48  30  49 W18G26    29.61R
BEAVER COUNTY  PTSUNNY   48  32  53 W21       29.62R
BUTLER*        CLOUDY    46  36  66 SW13G24   29.62F
PITTSBURGH INT CLOUDY    50  32  50 SW18G31   29.62R
PITTSBURGH     CLOUDY    49  36  61 W20G29    29.62S
INDIANA*       CLOUDY    46  43  87 W12G17    29.62S
LATROBE        CLOUDY    46  41  81 W17       29.63R
WASHINGTON CO* CLOUDY    48  34  57 SW16G30   29.65F
$$

PAZ004>006-010>012-017>019-024>028-033>037-041-042-045-046-049>053-251900-
CENTRAL PENNSYLVANIA

CITY           SKY/WX    TMP DP  RH WIND       PRES   REMARKS
BRADFORD       CLOUDY    42  40  92 SW6       29.52R
DUBOIS         CLOUDY    43  36  76 W13       29.57R
CLEARFIELD       N/A    N/A N/A N/A MISG      29.57R
JOHNSTOWN      LGT RAIN  41  40  96 W13       29.58R
ALTOONA        CLOUDY    50  45  83 W17       29.56R
STATE COLLEGE  LGT RAIN  48  45  87 W31G37    29.52R
WILLIAMSPORT   LGT RAIN  61  54  77 S7        29.45F
SELINSGROVE    PTSUNNY   63  57  81 S10       29.48F
FT INDIANTOWN  TSTM      61  61 100 W12       29.49F FOG
CAPITAL CITY   CLOUDY    69  55  60 SW7       29.49F
HARRISBURG     CLOUDY    67  59  75 CALM      29.48F
YORK           CLOUDY    69  58  67 SW9       29.50F
$$

PAZ038>040-043-044-047-048-054-055-060>062-067>071-251900-
EASTERN PENNSYLVANIA

CITY           SKY/WX    TMP DP  RH WIND       PRES   REMARKS
SCRANTON       LGT RAIN  66  59  78 S8G22     29.48F
MOUNT POCONO   CLOUDY    59  55  87 S17G26    29.55F
ALLENTOWN      PTSUNNY   71  56  58 S13G23    29.54F
QUAKERTOWN*    MOCLDY    68  57  68 S10G18    29.56F
READING        CLOUDY    71  58  63 S10G21    29.51F
LANCASTER      PTSUNNY   70  59  68 S15G25    29.50F
COATESVILLE    CLOUDY    70  57  64 S9G20     29.56F
POTTSTOWN      CLOUDY    69  56  62 S10G20    29.57F
BLUE BELL      CLOUDY    70  57  64 S12G18    29.57F
DOYLESTOWN     CLOUDY    69  56  62 S9G20     29.57F
WILLOW GROVE   NOT AVBL
NORTH PHILA    CLOUDY    73  54  51 SW14G22   29.59F
PHILADELPHIA   PTSUNNY   71  56  58 S10G20    29.58F
$$




USA.gov is the U.S. government's official web portal to all federal, state and local government web resources and services.